QPF
0.00 0.00 0.00 0.00 0.00 0.00 0.00 0.00 0.00 0.00 0.00 0.00 0.00 0.00 0.00 0.00 0.00 0.00 0.00 0.00 0.00 0.00 0.00 0.00 0.00 0.00 0.00 0.00 0.00 0.00 0.00 0.00 0.00 0.00 0.00 0.00 0.00 0.00 0.00 0.00 0.00 0.00 0.00 0.00
0.00 0.00 0.00 0.00 0.00 0.00 0.00 0.00 0.00 0.00 0.00 0.00 0.00 0.00 0.00 0.00 0.00 0.00 0.00 0.00 0.00 0.00 0.00 0.00 0.00 0.00 0.00 0.00 0.00 0.00 0.00 0.00 0.00 0.00 0.00 0.00 0.00 0.00 0.00 0.00 0.00 0.00 0.00 0.00
0.00 0.00 0.00 0.00 0.00 0.00 0.00 0.00 0.00 0.00 0.00 0.00 0.00 0.00 0.00 0.00 0.00 0.00 0.00 0.00 0.00 0.00 0.00 0.00 0.00 0.00 0.00 0.00 0.00 0.00 0.00 0.00 0.00 0.00 0.00 0.00 0.00 0.00 0.00 0.00 0.00 0.00 0.00 0.00
0.00 0.00 0.00 0.00 0.00 0.00 0.00 0.00 0.00 0.00 0.00 0.00 0.00 0.00 0.00 0.00 0.00 0.00 0.00 0.00 0.00 0.00 0.00 0.00 0.00 0.00 0.00 0.00 0.00 0.00 0.00 0.00 0.00 0.00 0.00 0.00 0.00 0.00 0.00 0.00 0.00 0.00 0.00 0.00
0.00 0.00 0.00 0.00 0.00 0.00 0.00 0.00 0.00 0.00 0.00 0.00 0.00 0.00 0.00 0.00 0.00 0.00 0.00 0.00 0.00 0.00 0.00 0.00 0.00 0.00 0.00 0.00 0.00 0.00 0.00 0.00 0.00 0.00 0.00 0.00 0.00 0.00 0.00 0.00 0.00 0.00 0.00 0.00
0.00 0.00 0.00 0.00 0.00 0.00 0.00 0.00 0.00 0.00 0.00 0.00 0.00 0.00 0.00 0.00 0.00 0.00 0.00 0.00 0.00 0.00 0.00 0.00 0.00 0.00 0.00 0.00 0.00 0.00 0.00 0.00 0.00 0.00 0.00 0.00 0.00 0.00 0.00 0.00 0.00 0.00 0.00 0.00
0.00 0.00 0.00 0.00 0.00 0.00 0.00 0.00 0.00 0.00 0.00 0.00 0.00 0.00 0.00 0.00 0.00 0.00 0.00 0.00 0.00 0.00 0.00 0.00 0.00 0.00 0.00 0.00 0.00 0.00 0.00 0.00 0.00 0.00 0.00 0.00 0.00 0.00 0.00 0.00 0.00 0.00 0.00 0.00
0.00 0.00 0.00 0.00 0.00 0.00 0.00 0.00 0.00 0.00 0.00 0.00 0.00 0.00 0.00 0.00 0.00 0.00 0.00 0.00 0.00 0.00 0.00 0.00 0.00 0.00 0.00 0.00 0.00 0.00 0.00 0.00 0.00 0.00 0.00 0.00 0.00 0.00 0.00 0.00 0.00 0.00 0.00 0.00
0.00 0.00 0.00 0.00 0.00 0.00 0.00 0.00 0.00 0.00 0.00 0.00 0.00 0.00 0.00 0.00 0.00 0.00 0.00 0.00 0.00 0.00 0.00 0.00 0.00 0.00 0.00 0.00 0.00 0.00 0.00 0.00 0.00 0.00 0.00 0.00 0.00 0.00 0.00 0.00 0.00 0.00 0.00 0.00
0.00 0.00 0.00 0.00 0.00 0.00 0.00 0.00 0.00 0.00 0.00 0.00 0.00 0.00 0.00 0.00 0.00 0.00 0.00 0.00 0.00 0.00 0.00 0.00 0.00 0.00 0.00 0.00 0.00 0.00 0.00 0.00 0.00 0.00 0.00 0.00 0.00 0.00 0.00 0.00 0.00 0.00 0.00 0.00
0.00 0.00 0.00 0.00 0.00 0.00 0.00 0.00 0.00 0.00 0.00 0.00 0.00 0.00 0.00 0.00 0.00 0.00 0.00 0.00 0.00 0.00 0.00 0.00 0.00 0.00 0.00 0.00 0.00 0.00 0.00 0.00 0.00 0.00 0.00 0.00 0.00 0.00 0.00 0.00 0.00 0.00 0.00 0.00
0.00 0.00 0.00 0.00 0.00 0.00 0.00 0.00 0.00 0.00 0.00 0.00 0.00 0.00 0.00 0.00 0.00 0.00 0.00 0.00 0.00 0.00 0.00 0.00 0.00 0.00 0.00 0.00 0.00 0.00 0.00 0.00 0.00 0.00 0.00 0.00 0.00 0.00 0.00 0.00 0.01 0.00 0.00 0.00
0.00 0.00 0.00 0.00 0.00 0.00 0.00 0.00 0.00 0.00 0.00 0.00 0.00 0.00 0.00 0.00 0.00 0.00 0.00 0.00 0.00 0.00 0.00 0.00 0.00 0.00 0.00 0.00 0.00 0.00 0.00 0.00 0.00 0.00 0.00 0.00 0.00 0.00 0.00 0.01 0.01 0.01 0.00 0.00
0.00 0.00 0.00 0.00 0.00 0.00 0.00 0.00 0.00 0.00 0.00 0.00 0.00 0.00 0.00 0.00 0.00 0.00 0.00 0.00 0.00 0.00 0.00 0.00 0.00 0.00 0.00 0.00 0.00 0.00 0.00 0.00 0.00 0.00 0.00 0.00 0.00 0.00 0.00 0.01 0.01 0.01 0.01 0.00
0.00 0.00 0.00 0.00 0.00 0.00 0.00 0.00 0.00 0.00 0.00 0.00 0.00 0.00 0.00 0.00 0.00 0.00 0.00 0.00 0.00 0.00 0.00 0.00 0.00 0.00 0.00 0.00 0.00 0.00 0.00 0.00 0.00 0.00 0.00 0.00 0.00 0.00 0.00 0.01 0.01 0.01 0.01 0.01
0.00 0.00 0.00 0.00 0.00 0.00 0.00 0.00 0.00 0.00 0.00 0.00 0.00 0.00 0.00 0.00 0.00 0.00 0.00 0.00 0.00 0.00 0.00 0.00 0.00 0.00 0.00 0.00 0.00 0.00 0.00 0.00 0.00 0.00 0.00 0.00 0.00 0.00 0.01 0.01 0.01 0.01 0.01 0.01
0.00 0.00 0.00 0.00 0.00 0.00 0.00 0.00 0.00 0.00 0.00 0.00 0.00 0.00 0.00 0.00 0.00 0.00 0.00 0.00 0.00 0.00 0.00 0.00 0.00 0.00 0.00 0.00 0.00 0.00 0.00 0.00 0.00 0.00 0.00 0.00 0.00 0.01 0.01 0.01 0.01 0.01 0.01 0.01
0.00 0.00 0.00 0.00 0.00 0.00 0.00 0.00 0.00 0.00 0.00 0.00 0.00 0.00 0.00 0.00 0.00 0.00 0.00 0.00 0.00 0.00 0.00 0.00 0.00 0.00 0.00 0.00 0.00 0.00 0.00 0.00 0.00 0.00 0.00 0.00 0.00 0.00 0.01 0.01 0.01 0.01 0.01 0.02
0.00 0.00 0.00 0.00 0.00 0.00 0.00 0.00 0.00 0.00 0.00 0.00 0.00 0.00 0.00 0.00 0.00 0.00 0.00 0.00 0.00 0.00 0.00 0.00 0.00 0.00 0.00 0.00 0.00 0.00 0.00 0.00 0.00 0.00 0.01 0.01 0.01 0.01 0.01 0.01 0.01 0.01 0.01 0.02
0.00 0.00 0.00 0.00 0.00 0.00 0.00 0.00 0.00 0.00 0.00 0.00 0.00 0.00 0.00 0.00 0.00 0.00 0.00 0.00 0.00 0.00 0.00 0.00 0.00 0.00 0.00 0.00 0.01 0.01 0.01 0.01 0.01 0.01 0.01 0.01 0.01 0.01 0.01 0.01 0.02 0.01 0.01 0.02
0.00 0.00 0.00 0.00 0.00 0.00 0.00 0.00 0.00 0.00 0.00 0.00 0.00 0.00 0.00 0.00 0.00 0.00 0.00 0.00 0.00 0.00 0.00 0.00 0.00 0.00 0.00 0.01 0.02 0.02 0.02 0.01 0.01 0.01 0.01 0.01 0.01 0.02 0.02 0.02 0.02 0.03 0.02 0.02
0.00 0.00 0.00 0.00 0.00 0.00 0.00 0.00 0.00 0.00 0.00 0.00 0.00 0.00 0.00 0.00 0.00 0.00 0.00 0.00 0.00 0.00 0.00 0.00 0.00 0.01 0.02 0.03 0.03 0.03 0.02 0.01 0.01 0.01 0.01 0.01 0.02 0.02 0.03 0.03 0.04 0.04 0.04 0.03
0.00 0.00 0.00 0.00 0.00 0.00 0.00 0.00 0.00 0.00 0.00 0.01 0.01 0.01 0.01 0.01 0.01 0.01 0.01 0.00 0.00 0.01 0.01 0.00 0.01 0.02 0.04 0.03 0.03 0.03 0.02 0.02 0.01 0.01 0.01 0.01 0.02 0.02 0.03 0.03 0.04 0.05 0.06 0.06
0.00 0.00 0.00 0.00 0.00 0.00 0.00 0.00 0.00 0.00 0.01 0.01 0.01 0.01 0.01 0.01 0.01 0.01 0.01 0.01 0.01 0.01 0.01 0.01 0.02 0.03 0.04 0.02 0.03 0.03 0.02 0.02 0.02 0.01 0.01 0.02 0.03 0.03 0.04 0.04 0.05 0.06 0.08 0.08
0.00 0.00 0.00 0.00 0.00 0.00 0.00 0.00 0.00 0.00 0.00 0.00 0.01 0.01 0.01 0.01 0.01 0.01 0.01 0.01 0.01 0.02 0.01 0.02 0.03 0.04 0.03 0.03 0.03 0.03 0.03 0.03 0.04 0.04 0.04 0.04 0.05 0.05 0.06 0.07 0.07 0.08 0.09 0.10
0.00 0.00 0.00 0.00 0.00 0.00 0.00 0.00 0.00 0.00 0.00 0.00 0.00 0.00 0.00 0.01 0.01 0.01 0.01 0.01 0.01 0.01 0.02 0.02 0.03 0.04 0.05 0.05 0.05 0.06 0.06 0.06 0.05 0.05 0.05 0.05 0.05 0.05 0.06 0.07 0.08 0.10 0.11 0.11
0.00 0.00 0.00 0.00 0.00 0.00 0.00 0.00 0.00 0.00 0.00 0.00 0.00 0.00 0.00 0.00 0.00 0.00 0.00 0.01 0.01 0.01 0.02 0.02 0.03 0.04 0.05 0.06 0.06 0.07 0.06 0.06 0.05 0.05 0.06 0.06 0.06 0.06 0.07 0.07 0.08 0.09 0.10 0.10
MSLP
1014.93 1015.17 1015.45 1015.77 1016.10 1016.43 1016.72 1016.94 1017.08 1017.12 1017.06 1016.93 1016.74 1016.52 1016.29 1016.07 1015.86 1015.65 1015.43 1015.18 1014.89 1014.53 1014.13 1013.69 1013.22 1012.77 1012.36 1012.01 1011.74 1011.54 1011.42 1011.37 1011.36 1011.37 1011.41 1011.45 1011.50 1011.56 1011.63 1011.73 1011.84 1011.97 1012.12 1012.27
1015.51 1015.65 1015.78 1015.92 1016.06 1016.21 1016.35 1016.46 1016.55 1016.61 1016.64 1016.64 1016.61 1016.57 1016.51 1016.44 1016.33 1016.19 1016.00 1015.75 1015.43 1015.04 1014.60 1014.13 1013.63 1013.15 1012.70 1012.31 1011.97 1011.70 1011.49 1011.33 1011.21 1011.13 1011.07 1011.04 1011.04 1011.06 1011.12 1011.21 1011.32 1011.46 1011.61 1011.76
1016.06 1016.11 1016.12 1016.10 1016.09 1016.08 1016.09 1016.11 1016.16 1016.23 1016.32 1016.42 1016.51 1016.60 1016.66 1016.69 1016.67 1016.58 1016.41 1016.17 1015.85 1015.46 1015.01 1014.53 1014.05 1013.56 1013.10 1012.67 1012.29 1011.95 1011.65 1011.38 1011.15 1010.96 1010.80 1010.68 1010.60 1010.56 1010.57 1010.62 1010.71 1010.82 1010.96 1011.10
1016.54 1016.50 1016.40 1016.26 1016.12 1016.00 1015.91 1015.87 1015.89 1015.96 1016.09 1016.25 1016.43 1016.61 1016.75 1016.85 1016.87 1016.82 1016.68 1016.45 1016.14 1015.77 1015.34 1014.89 1014.42 1013.96 1013.50 1013.06 1012.64 1012.24 1011.86 1011.50 1011.16 1010.85 1010.58 1010.35 1010.17 1010.05 1009.99 1009.98 1010.01 1010.08 1010.18 1010.30
1016.85 1016.73 1016.55 1016.33 1016.10 1015.90 1015.75 1015.67 1015.67 1015.76 1015.91 1016.12 1016.36 1016.59 1016.78 1016.92 1016.98 1016.95 1016.83 1016.62 1016.33 1015.99 1015.60 1015.18 1014.75 1014.31 1013.87 1013.43 1012.99 1012.54 1012.09 1011.65 1011.21 1010.79 1010.41 1010.07 1009.79 1009.57 1009.41 1009.31 1009.27 1009.27 1009.32 1009.40
1016.97 1016.78 1016.52 1016.24 1015.96 1015.72 1015.55 1015.46 1015.47 1015.58 1015.77 1016.01 1016.28 1016.55 1016.78 1016.94 1017.02 1017.01 1016.91 1016.71 1016.45 1016.13 1015.78 1015.40 1015.00 1014.59 1014.17 1013.74 1013.28 1012.80 1012.30 1011.79 1011.27 1010.77 1010.28 1009.84 1009.45 1009.12 1008.86 1008.66 1008.52 1008.44 1008.42 1008.45
1016.85 1016.60 1016.29 1015.98 1015.69 1015.45 1015.29 1015.23 1015.27 1015.41 1015.64 1015.92 1016.22 1016.51 1016.76 1016.93 1017.03 1017.03 1016.93 1016.76 1016.52 1016.22 1015.90 1015.55 1015.18 1014.79 1014.39 1013.96 1013.49 1013.00 1012.47 1011.91 1011.33 1010.76 1010.19 1009.66 1009.17 1008.73 1008.36 1008.05 1007.81 1007.63 1007.53 1007.48
1016.51 1016.20 1015.88 1015.57 1015.30 1015.10 1014.99 1014.98 1015.08 1015.26 1015.53 1015.84 1016.17 1016.47 1016.73 1016.92 1017.02 1017.02 1016.94 1016.78 1016.55 1016.27 1015.96 1015.63 1015.27 1014.90 1014.50 1014.08 1013.61 1013.11 1012.56 1011.98 1011.37 1010.74 1010.12 1009.52 1008.94 1008.41 1007.92 1007.50 1007.14 1006.86 1006.65 1006.53
1015.97 1015.64 1015.33 1015.05 1014.84 1014.72 1014.68 1014.75 1014.91 1015.15 1015.46 1015.79 1016.14 1016.46 1016.72 1016.90 1017.00 1017.01 1016.93 1016.77 1016.54 1016.27 1015.96 1015.63 1015.28 1014.90 1014.51 1014.08 1013.61 1013.11 1012.56 1011.97 1011.35 1010.71 1010.05 1009.39 1008.74 1008.12 1007.54 1007.00 1006.53 1006.12 1005.81 1005.59
1015.29 1014.97 1014.70 1014.49 1014.37 1014.34 1014.41 1014.56 1014.79 1015.09 1015.43 1015.79 1016.14 1016.45 1016.70 1016.88 1016.97 1016.97 1016.88 1016.72 1016.49 1016.21 1015.90 1015.55 1015.18 1014.80 1014.39 1013.96 1013.49 1012.99 1012.45 1011.87 1011.26 1010.61 1009.94 1009.25 1008.55 1007.85 1007.17 1006.53 1005.93 1005.41 1004.97 1004.65
1014.52 1014.24 1014.05 1013.95 1013.94 1014.03 1014.20 1014.44 1014.74 1015.09 1015.45 1015.82 1016.15 1016.45 1016.68 1016.83 1016.90 1016.89 1016.79 1016.61 1016.37 1016.07 1015.74 1015.37 1014.98 1014.57 1014.14 1013.70 1013.23 1012.73 1012.20 1011.64 1011.05 1010.41 1009.74 1009.04 1008.30 1007.55 1006.79 1006.04 1005.33 1004.68 1004.13 1003.69
1013.71 1013.52 1013.44 1013.46 1013.59 1013.80 1014.07 1014.40 1014.76 1015.13 1015.50 1015.85 1016.16 1016.41 1016.61 1016.73 1016.77 1016.73 1016.61 1016.41 1016.16 1015.84 1015.48 1015.08 1014.66 1014.22 1013.77 1013.30 1012.82 1012.32 1011.81 1011.27 1010.70 1010.09 1009.43 1008.72 1007.97 1007.17 1006.35 1005.52 1004.70 1003.94 1003.27 1002.71
1012.91 1012.83 1012.88 1013.05 1013.31 1013.64 1014.01 1014.41 1014.80 1015.19 1015.54 1015.85 1016.12 1016.32 1016.46 1016.54 1016.54 1016.48 1016.34 1016.12 1015.84 1015.51 1015.12 1014.69 1014.23 1013.75 1013.26 1012.76 1012.26 1011.76 1011.26 1010.73 1010.19 1009.61 1008.97 1008.28 1007.53 1006.71 1005.85 1004.95 1004.06 1003.19 1002.41 1001.73
1012.14 1012.19 1012.38 1012.69 1013.08 1013.51 1013.97 1014.42 1014.83 1015.21 1015.53 1015.79 1016.00 1016.14 1016.23 1016.26 1016.22 1016.13 1015.96 1015.73 1015.44 1015.08 1014.66 1014.20 1013.70 1013.17 1012.64 1012.11 1011.59 1011.07 1010.56 1010.05 1009.53 1008.98 1008.38 1007.71 1006.97 1006.16 1005.28 1004.35 1003.40 1002.46 1001.58 1000.81
1011.43 1011.61 1011.93 1012.37 1012.87 1013.39 1013.91 1014.39 1014.81 1015.15 1015.43 1015.64 1015.78 1015.87 1015.90 1015.88 1015.81 1015.69 1015.51 1015.26 1014.95 1014.57 1014.12 1013.62 1013.09 1012.52 1011.94 1011.37 1010.81 1010.27 1009.75 1009.25 1008.74 1008.22 1007.66 1007.03 1006.33 1005.54 1004.67 1003.74 1002.77 1001.79 1000.85 999.98
1010.78 1011.09 1011.53 1012.07 1012.66 1013.25 1013.80 1014.29 1014.69 1015.01 1015.24 1015.39 1015.47 1015.50 1015.49 1015.43 1015.33 1015.19 1014.99 1014.73 1014.40 1014.00 1013.53 1013.00 1012.42 1011.80 1011.18 1010.56 1009.96 1009.39 1008.86 1008.36 1007.86 1007.37 1006.84 1006.26 1005.61 1004.87 1004.05 1003.14 1002.18 1001.19 1000.22 999.30
1010.24 1010.64 1011.18 1011.80 1012.44 1013.06 1013.63 1014.11 1014.49 1014.77 1014.95 1015.05 1015.09 1015.08 1015.02 1014.93 1014.81 1014.65 1014.43 1014.16 1013.81 1013.39 1012.90 1012.33 1011.71 1011.05 1010.38 1009.72 1009.08 1008.48 1007.92 1007.41 1006.93 1006.45 1005.97 1005.44 1004.84 1004.17 1003.40 1002.55 1001.63 1000.66 999.69 998.75
1009.81 1010.29 1010.89 1011.55 1012.22 1012.85 1013.41 1013.86 1014.22 1014.46 1014.60 1014.66 1014.66 1014.61 1014.52 1014.41 1014.26 1014.08 1013.85 1013.56 1013.20 1012.75 1012.23 1011.64 1010.98 1010.28 1009.57 1008.86 1008.19 1007.56 1006.98 1006.46 1005.97 1005.52 1005.06 1004.58 1004.05 1003.44 1002.74 1001.96 1001.09 1000.17 999.22 998.28
1009.52 1010.05 1010.68 1011.35 1012.02 1012.63 1013.16 1013.58 1013.90 1014.10 1014.21 1014.24 1014.20 1014.12 1014.01 1013.87 1013.70 1013.50 1013.24 1012.93 1012.54 1012.08 1011.53 1010.91 1010.22 1009.50 1008.75 1008.02 1007.31 1006.65 1006.05 1005.52 1005.03 1004.59 1004.15 1003.70 1003.21 1002.66 1002.03 1001.31 1000.51 999.64 998.73 997.81
1009.38 1009.94 1010.56 1011.22 1011.85 1012.42 1012.90 1013.28 1013.56 1013.72 1013.80 1013.79 1013.73 1013.63 1013.49 1013.32 1013.12 1012.89 1012.60 1012.26 1011.85 1011.35 1010.78 1010.14 1009.43 1008.69 1007.93 1007.17 1006.46 1005.78 1005.17 1004.62 1004.13 1003.68 1003.25 1002.82 1002.35 1001.83 1001.24 1000.57 999.82 999.00 998.13 997.24
1009.37 1009.92 1010.52 1011.13 1011.71 1012.22 1012.65 1012.98 1013.20 1013.33 1013.37 1013.34 1013.25 1013.11 1012.94 1012.74 1012.51 1012.24 1011.91 1011.53 1011.08 1010.56 1009.97 1009.31 1008.60 1007.86 1007.10 1006.35 1005.63 1004.95 1004.34 1003.78 1003.27 1002.81 1002.37 1001.92 1001.46 1000.94 1000.37 999.72 998.99 998.20 997.36 996.50
1009.45 1009.98 1010.53 1011.08 1011.59 1012.03 1012.39 1012.65 1012.83 1012.91 1012.91 1012.85 1012.73 1012.57 1012.36 1012.12 1011.85 1011.53 1011.16 1010.74 1010.26 1009.71 1009.10 1008.44 1007.74 1007.01 1006.27 1005.54 1004.84 1004.17 1003.56 1003.00 1002.48 1001.99 1001.52 1001.05 1000.56 1000.02 999.43 998.77 998.04 997.26 996.43 995.59
1009.55 1010.03 1010.53 1011.00 1011.42 1011.78 1012.07 1012.27 1012.39 1012.43 1012.40 1012.31 1012.16 1011.96 1011.72 1011.44 1011.12 1010.76 1010.35 1009.89 1009.38 1008.81 1008.20 1007.54 1006.86 1006.15 1005.45 1004.76 1004.09 1003.45 1002.85 1002.29 1001.76 1001.25 1000.74 1000.23 999.69 999.10 998.47 997.78 997.03 996.24 995.41 994.58
1009.59 1010.02 1010.44 1010.82 1011.16 1011.44 1011.65 1011.80 1011.87 1011.87 1011.81 1011.69 1011.51 1011.29 1011.02 1010.71 1010.35 1009.95 1009.50 1009.01 1008.47 1007.89 1007.28 1006.64 1005.99 1005.32 1004.66 1004.02 1003.39 1002.79 1002.22 1001.66 1001.13 1000.60 1000.06 999.50 998.91 998.27 997.58 996.85 996.07 995.25 994.42 993.60
1009.50 1009.86 1010.20 1010.50 1010.76 1010.96 1011.10 1011.19 1011.22 1011.19 1011.11 1010.98 1010.79 1010.56 1010.27 1009.93 1009.55 1009.12 1008.65 1008.14 1007.59 1007.00 1006.40 1005.78 1005.16 1004.54 1003.93 1003.34 1002.76 1002.20 1001.66 1001.13 1000.60 1000.05 999.49 998.90 998.27 997.59 996.86 996.09 995.28 994.45 993.61 992.80
1009.22 1009.52 1009.78 1010.00 1010.18 1010.31 1010.40 1010.45 1010.45 1010.41 1010.32 1010.19 1010.00 1009.77 1009.49 1009.15 1008.76 1008.32 1007.84 1007.32 1006.76 1006.19 1005.60 1005.00 1004.41 1003.83 1003.26 1002.72 1002.19 1001.67 1001.17 1000.67 1000.16 999.62 999.06 998.46 997.81 997.12 996.38 995.59 994.78 993.95 993.14 992.35
1008.74 1008.97 1009.16 1009.31 1009.43 1009.51 1009.56 1009.58 1009.57 1009.53 1009.45 1009.34 1009.17 1008.96 1008.70 1008.38 1008.00 1007.57 1007.10 1006.58 1006.03 1005.46 1004.89 1004.31 1003.74 1003.19 1002.66 1002.16 1001.67 1001.20 1000.73 1000.27 999.79 999.29 998.75 998.17 997.55 996.88 996.17 995.41 994.64 993.85 993.08 992.36
Thickness
5705 5709 5709 5708 5708 5703 5700 5694 5687 5694 5695 5703 5710 5714 5718 5720 5722 5722 5722 5723 5723 5722 5722 5721 5720 5720 5720 5719 5717 5715 5711 5708 5706 5705 5702 5699 5697 5695 5692 5690 5688 5685 5682 5680
5702 5705 5704 5704 5706 5704 5701 5699 5696 5696 5696 5709 5711 5713 5714 5715 5716 5716 5717 5718 5719 5719 5719 5718 5718 5718 5717 5717 5715 5713 5710 5707 5706 5703 5700 5698 5696 5693 5691 5688 5686 5684 5681 5679
5687 5694 5700 5691 5701 5701 5698 5699 5698 5692 5698 5707 5707 5708 5709 5710 5710 5710 5712 5713 5714 5715 5716 5717 5717 5716 5715 5715 5713 5710 5708 5706 5704 5701 5698 5696 5694 5691 5689 5687 5685 5682 5680 5678
5677 5688 5679 5692 5708 5706 5700 5699 5699 5700 5702 5704 5705 5707 5708 5708 5707 5707 5709 5710 5711 5712 5713 5714 5714 5713 5712 5711 5709 5707 5705 5703 5701 5698 5696 5694 5691 5689 5687 5685 5683 5681 5679 5677
5667 5672 5677 5693 5704 5702 5698 5693 5699 5698 5700 5702 5704 5704 5702 5705 5704 5704 5705 5707 5708 5709 5709 5709 5709 5708 5706 5704 5702 5701 5700 5699 5698 5696 5693 5691 5689 5687 5685 5683 5681 5679 5677 5675
5664 5671 5670 5687 5702 5705 5699 5684 5696 5695 5694 5695 5695 5684 5688 5699 5700 5700 5701 5702 5702 5703 5703 5703 5702 5701 5699 5697 5695 5695 5695 5695 5694 5692 5690 5688 5687 5685 5683 5681 5679 5677 5675 5673
5661 5665 5672 5689 5697 5699 5678 5679 5691 5691 5689 5687 5683 5683 5687 5692 5693 5694 5695 5696 5696 5696 5695 5695 5694 5693 5690 5689 5689 5691 5690 5689 5688 5687 5686 5685 5683 5681 5679 5677 5675 5673 5672 5671
5655 5658 5666 5688 5689 5681 5679 5685 5687 5686 5685 5682 5681 5683 5684 5684 5685 5686 5686 5687 5687 5686 5685 5685 5685 5684 5683 5682 5684 5684 5682 5681 5681 5681 5680 5680 5676 5675 5673 5671 5669 5668 5667 5666
5662 5666 5675 5679 5680 5681 5681 5678 5679 5678 5678 5678 5675 5674 5675 5676 5675 5676 5676 5676 5676 5675 5675 5675 5675 5674 5673 5675 5675 5674 5674 5673 5673 5673 5672 5672 5670 5668 5666 5664 5663 5663 5661 5661
5659 5665 5670 5671 5673 5674 5673 5672 5672 5671 5671 5669 5667 5666 5666 5665 5664 5664 5664 5664 5664 5664 5664 5664 5665 5664 5664 5665 5665 5665 5664 5665 5665 5664 5664 5663 5663 5662 5660 5658 5657 5657 5656 5656
5652 5657 5660 5663 5663 5663 5664 5663 5663 5662 5661 5660 5658 5657 5655 5654 5653 5652 5653 5652 5652 5651 5651 5652 5653 5654 5654 5654 5654 5654 5654 5655 5655 5655 5655 5654 5654 5654 5654 5655 5654 5654 5654 5652
5647 5652 5649 5650 5653 5654 5652 5652 5651 5650 5650 5649 5648 5646 5645 5643 5642 5641 5640 5640 5640 5640 5640 5640 5641 5642 5643 5643 5643 5643 5643 5644 5644 5644 5644 5644 5644 5644 5645 5645 5647 5648 5648 5647
5647 5648 5645 5644 5644 5644 5642 5641 5641 5639 5638 5637 5636 5635 5633 5631 5630 5629 5629 5628 5628 5628 5628 5628 5628 5629 5630 5631 5631 5631 5632 5633 5633 5633 5633 5633 5632 5633 5633 5635 5636 5637 5638 5638
5637 5636 5633 5633 5631 5632 5631 5630 5629 5628 5627 5625 5624 5622 5621 5619 5618 5617 5616 5616 5615 5615 5615 5615 5615 5616 5617 5617 5618 5618 5619 5620 5621 5621 5621 5621 5621 5622 5622 5623 5624 5626 5627 5628
5625 5624 5622 5621 5620 5619 5618 5617 5614 5613 5613 5612 5611 5609 5607 5606 5605 5604 5604 5603 5602 5601 5601 5601 5602 5603 5604 5603 5603 5604 5604 5605 5606 5607 5608 5608 5609 5609 5610 5611 5612 5614 5615 5616
5612 5611 5609 5607 5607 5605 5604 5602 5600 5599 5599 5598 5596 5595 5594 5593 5592 5591 5590 5588 5586 5586 5587 5587 5587 5589 5589 5588 5588 5588 5589 5591 5592 5592 5593 5594 5595 5596 5597 5598 5600 5602 5604 5606
5597 5595 5594 5592 5592 5591 5589 5588 5587 5586 5585 5584 5583 5582 5581 5579 5578 5577 5576 5575 5573 5572 5572 5571 5572 5573 5573 5572 5572 5572 5573 5574 5577 5577 5578 5579 5581 5583 5585 5587 5588 5591 5595 5596
5586 5585 5582 5580 5578 5577 5576 5575 5574 5573 5571 5571 5570 5568 5566 5564 5563 5562 5562 5560 5558 5558 5558 5557 5556 5557 5557 5556 5556 5556 5557 5558 5560 5561 5563 5565 5568 5570 5572 5574 5577 5580 5582 5583
5571 5570 5569 5567 5566 5564 5562 5561 5560 5558 5558 5557 5555 5553 5552 5550 5549 5547 5546 5543 5542 5542 5545 5544 5544 5542 5541 5540 5542 5541 5542 5543 5545 5547 5549 5552 5554 5557 5559 5562 5565 5568 5569 5571
5556 5555 5554 5553 5552 5550 5548 5547 5546 5545 5544 5542 5540 5538 5537 5536 5534 5532 5530 5528 5527 5527 5528 5528 5527 5526 5526 5526 5527 5526 5527 5528 5530 5533 5535 5537 5540 5544 5547 5550 5552 5555 5558 5560
5540 5539 5539 5538 5538 5537 5535 5534 5532 5531 5530 5527 5524 5523 5522 5521 5520 5517 5514 5514 5517 5514 5513 5514 5512 5511 5511 5512 5514 5513 5513 5514 5517 5519 5522 5525 5528 5531 5535 5538 5541 5544 5547 5550
5524 5523 5523 5523 5523 5522 5522 5519 5517 5516 5514 5512 5511 5509 5507 5505 5505 5503 5501 5499 5501 5501 5499 5498 5498 5498 5499 5501 5500 5499 5500 5501 5504 5506 5509 5512 5516 5519 5523 5527 5530 5534 5537 5540
5508 5508 5508 5508 5508 5507 5507 5505 5503 5501 5499 5498 5496 5494 5492 5490 5488 5486 5488 5489 5487 5487 5487 5486 5486 5488 5489 5488 5487 5487 5488 5490 5492 5495 5498 5501 5505 5509 5513 5517 5520 5523 5526 5529
5494 5494 5494 5494 5492 5490 5490 5491 5489 5487 5486 5484 5482 5480 5478 5476 5475 5475 5474 5475 5476 5476 5474 5474 5475 5477 5477 5475 5475 5476 5477 5479 5482 5485 5488 5491 5494 5497 5502 5506 5509 5512 5515 5517
5481 5480 5480 5478 5477 5477 5478 5477 5475 5473 5472 5471 5470 5469 5467 5464 5463 5464 5463 5462 5462 5462 5461 5462 5463 5464 5463 5462 5463 5465 5467 5470 5473 5476 5478 5480 5483 5487 5491 5495 5498 5501 5504 5506
5468 5467 5467 5466 5465 5465 5464 5462 5461 5460 5458 5458 5460 5459 5457 5455 5453 5452 5452 5451 5451 5451 5450 5449 5449 5451 5450 5451 5453 5455 5458 5461 5464 5467 5469 5471 5474 5477 5481 5484 5487 5490 5493 5496
5455 5454 5454 5453 5454 5453 5452 5451 5450 5450 5449 5447 5448 5449 5447 5445 5444 5443 5442 5442 5442 5441 5441 5441 5441 5441 5441 5442 5444 5446 5448 5451 5454 5457 5460 5462 5464 5467 5470 5474 5477 5480 5482 5485